Location: Anciles
(42.5833°N, 0.5167°E)
Time: 07:07:14
(UTC+00:00)

Cosmos 1707 Rocket - Pass Details

Date: 10 December 2019
Orbit: 604 x 633 km, 82.5° (Epoch: 18 January)

Event Time Altitude Azimuth Distance (km) Brightness Sun altitude
Rises 17:00:59 0° 197° (SSW) 2,905 7.7 -6.8°
Reaches altitude 10° 17:03:15 10° 202° (SSW) 2,005 6.9 -7.1°
Maximum altitude 17:07:37 56° 280° (W) 757 4.4 -7.9°
Drops below altitude 10° 17:12:02 10° 360° (N) 2,025 6.0 -8.6°
Sets 17:14:20 0° 4° (N) 2,937 6.8 -9.0°
